Погода в Пентиктоне

Канада     49°29′34″N   119°36′06″W
темп.,
°C
ветер,
м/с
пор.,
м/с
влажн.,
%
обл.,
%
осадки,
мм/ч
давл.,
гПа
погр.,
м
24 сентября, пт
пт2423:00+9всв11650 0.0 102411
02:00+9в11680 0.0 102411
05:00+8всв11703 0.0 102311
08:00+10всв1162100 0.0 102270
11:00+18юз1240100 0.0 1019567
14:00+22юз343092 0.0 1015952
17:00+21ююз3531100 0.0 1012667
20:00+14юв3350100 0.0 101349
25 сентября, сб
сб2523:00+13юв235192 0.0 101245
02:00+12вюв235447 0.0 101140
05:00+11вюв235786 0.0 101139
08:00+12юв245298 0.0 1010128
11:00+19ююз3434100 0.0 1008580
14:00+23ююз3326100 0.0 1006934
17:00+22ююз2430100 0.0 1005482
20:00+15юв224892 0.0 100625
26 сентября, вс
вс2623:00+14вюв2249100 0.0 100622
02:00+14вюв2251100 0.0 100524
05:00+13юв235567 0.0 100451
08:00+13юв2356100 0.0 100484
11:00+17ю353686 0.0 1003682
14:00+21ююз35236 0.0 10022262
17:00+21зюз2626100 0.0 10012822
20:00+11св11555 0.0 100413
27 сентября, пн
пн2723:00+10вюв22589 0.0 100418
02:00+9юв22674 0.0 100536
05:00+8юв337623 0.0 100657
08:00+9ююз257955 0.3 1007374
11:00+11ю497881 0.8 1008892
14:00+17ю711383 0.1 10052285
17:00+16ю573852 0.1 10042175
20:00+11ююв4951100 0.0 1006384
28 сентября, вт
вт2823:00+8юв1170100 0.0 100715
02:00+5юв118161 0.0 101010
05:00+4вюв118785 0.0 101110
08:00+4ссв11782 0.0 101173
11:00+10зсз2246100 0.0 1009723
14:00+14сз123084 0.0 10081702
17:00+13зсз3330100 0.0 10082224
20:00+6ссз1154100 0.0 101211